星链-2589 (STARLINK-2589 )

导读 | 豆包AI

STARLINK-2589是美国SpaceX公司星链(Starlink)星座中的一颗卫星,于2021年5月4日发射升空,属于星链星座组网卫星,主要为全球提供低延迟、高速率的宽带互联网服务,尤其覆盖偏远地区等网络基础设施薄弱区域,目前已在轨道运行,参与星链星座的全球服务组网。

基本信息
目录编号:
48371
目录名称:
STARLINK-2589
国际标识:
2021-038U
轨道中心:
EARTH
卫星名称:
星链-2589
卫星全名:
星链-2589 (STARLINK-2589 )
卫星状态:
在轨 (已飞行1775 天)
发射日期:
2021-05-04 UTC
国别 :
美国 (US)
星等 :
--
轨道信息
数据来源 国际轨道数据
星历时间: 2026-03-14T08:21:28+0800
16小时前
查看轨道信息
半长轴: 6853.297km
偏心率: 0.0001617
轨道倾角: 53.161°
近地点辐角 148.419°
升交点赤经 327.699°
平近点角 211.691°
近地点: 474.051km
远地点: 476.269km
周期: 94.104分钟
每日圈数: 15.302187
详细信息
固有亮度:
5
最大亮度:
2.5
卫星平台:
Starlink V1.0
覆盖范围:
全球
运营商:
太空探索技术公司
运营商所在国:
美国
制造商(研发单位):
太空探索技术公司
制造商所在国:
美国
使用方式:
暂无
卫星简介
星链(Starlink)计划是由太空探索技术公司(SpaceX)提出的一个巨型低轨卫星互联网星座项目,计划在2019年至2024年间在太空搭建由约1.2万颗卫星组成的“星链”网络,其中1584颗将部署在地球上空550千米处的近地轨道,并从2020年开始工作。该卫星仍在工作。
2D轨道图
3D轨道图
轨道高度分析图
轨道倾角分析图
轨道综合分析图
查看轨道综合分析图